Terminal Aerodrome Forecast
Issued by NWS Sioux Falls, SD

Home | Current Version | Previous Version | Text Only | Print | Product List | Glossary On
Versions: 1 2 3 4 5 6 7 8 9 10 11 12 13 14 15 16 17 18 19 20 21 22 23
000
FTUS43 KFSD 171053 AAA
TAFHON
TAF AMD
KHON 171053Z 1711/1806 VRB04KT 1SM BR BKN003
      TEMPO 1711/1714 1/2SM FG OVC001
     FM171400 VRB04KT 3SM BR SCT010
     FM171600 10005KT P6SM SCT100
     FM180000 10005KT P6SM BKN100=

USA.gov is the U.S. government's official web portal to all federal, state and local government web resources and services.